{"data":{"norad_id":59679,"intl_designator":"2024-085C","name":"2024-085C","alt_names":[],"object_type":"PAYLOAD","status":"ACTIVE","operator":null,"country":"PRC","launch_date":"2024-05-07","launch_site_code":"TAISC","launch_vehicle":null,"mission":null,"orbit_class":"UNKNOWN","rcs_meters":null,"size_class":null,"mass_kg":null,"dimensions":null,"purposes":[],"wikipedia_slug":null,"has_3d_model":false,"image_url":null,"decayed_at":null,"tle_current":{"epoch":"2026-09-22T23:27:15.833376Z","epoch_age_seconds":56251,"freshness":"FRESH","line1":"1 59679U 24085C   26265.97726659  .00007953  00000+0  22999-3 0  9994","line2":"2 59679  97.3224 341.1856 0026654  52.2592 308.1061 15.35530732132640","mean_motion":15.35530732,"eccentricity":0.0026654,"inclination_deg":97.3224,"raan_deg":341.1856,"arg_perigee_deg":52.2592,"mean_anomaly_deg":308.1061,"bstar":0.00022999,"rev_number":13264,"period_min":93.778650598834,"perigee_km":441.11990564872,"apogee_km":477.56915218307,"semimajor_km":6837.4815289159,"source":"CELESTRAK","updated_at":"2026-09-23T09:00:19.519911Z"}}}